Location: Unspecified
(0.0000°N, 0.0000°E)
Time: 00:01:29
(UTC+00:00)

Envisat - Pass Details

Date: 26 June 2022
Orbit: 764 x 765 km, 98.2° (Epoch: 28 June)

Event Time Altitude Azimuth Distance (km) Brightness Sun altitude
Rises 04:03:57 0° 13° (NNE) 3,212 6.8 -27.1°
Reaches altitude 10° 04:06:15 10° 14° (NNE) 2,289 5.9 -26.6°
Maximum altitude 04:11:18 83° 102° (ESE) 773 2.9 -25.4°
Enters shadow 04:12:18 58° 180° (S) 885 3.1 -25.2°
